User: anonymous   Login
Location: Unspecified
(0.0000°N, 0.0000°E)
Time: 00:02:52
(UTC+00:00)
Language:

QIANFAN-28 - Orbit

View from above orbital plane
View from above orbital plane
View from above satellite
View from above satellite

Ground track
Ground track

The orbit is defined by the following mean orbital elements,

1 61561U          26145.60738801 +.00000000 +00000-0 +23877-3 0 00003
2 61561  88.9855  57.7331 0009484 102.4454 257.7803 14.28349616    01
Epoch (UTC): 25 May 2026 14:34:38
Eccentricity: 0.0009484
inclination: 88.9855°
perigee height: 790 km
apogee height: 804 km
right ascension of ascending node: 57.7331°
argument of perigee: 102.4454°
revolutions per day: 14.28349616
mean anomaly at epoch: 257.7803°

The dashed part of the orbit path shows where the satellite is in the earth's shadow,  

DLR